This is the latest recevied weather packets stored in our database for station/object WD5U-1. If no packets are shown the sender has not sent any weather packets the latest 10 day(s).
| Time | Temp. | Humidity | Pressure | Rain* | Wind** | Luminosity | Snow |
|---|---|---|---|---|---|---|---|
| 1777677497 | 17.78° C | 69% | 1017.2 hPa | 0 mm | - | - | - |
| 1777676677 | 18.89° C | 66% | 1017.1 hPa | 0 mm | - | - | - |
| 1777675938 | 18.33° C | 64% | 1017.2 hPa | 0 mm | - | - | - |
| 1777675462 | 18.89° C | 62% | 1017.1 hPa | 0 mm | - | - | - |
| 1777675098 | 18.89° C | 67% | 1017.1 hPa | 0 mm | - | - | - |
| 1777674502 | 18.89° C | 63% | 1017.1 hPa | 0 mm | - | - | - |
| 1777671859 | 18.33° C | 63% | 1017 hPa | 0 mm | - | - | - |
| 1777670300 | 18.89° C | 60% | 1017.4 hPa | 0 mm | - | - | - |
| 1777667941 | 18.33° C | 62% | 1018.1 hPa | 0 mm | - | - | - |
| 1777667658 | 18.33° C | 63% | 1018.1 hPa | 0 mm | - | - | - |
| 1777666818 | 18.33° C | 63% | 1018.3 hPa | 0 mm | - | - | - |
| 1777666696 | 18.33° C | 62% | 1018.2 hPa | 0 mm | - | - | - |
| 1777666464 | 18.33° C | 61% | 1018.1 hPa | 0 mm | - | - | - |
| 1777665747 | 18.33° C | 59% | 1018.1 hPa | 0 mm | - | - | - |
| 1777665626 | 18.33° C | 58% | 1018 hPa | 0 mm | - | - | - |
| 1777664176 | 18.33° C | 60% | 1018.2 hPa | 0 mm | - | - | - |
| 1777663943 | 18.89° C | 60% | 1018.3 hPa | 0 mm | - | - | - |
| 1777662498 | 18.33° C | 65% | 1017.9 hPa | 0 mm | - | - | - |
| 1777661443 | 17.22° C | 62% | 1018.1 hPa | 0 mm | - | - | - |
| 1777660218 | 17.78° C | 62% | 1018.2 hPa | 0 mm | - | - | - |
| 1777659864 | 17.78° C | 62% | 1018.4 hPa | 0 mm | - | - | - |
| 1777658659 | 17.78° C | 63% | 1018.2 hPa | 0 mm | - | - | - |
| 1777658062 | 17.78° C | 62% | 1018.5 hPa | 0 mm | - | - | - |
| 1777657942 | 17.78° C | 62% | 1018.4 hPa | 0 mm | - | - | - |
| 1777657344 | 17.78° C | 63% | 1018.5 hPa | 0 mm | - | - | - |
* Rain latest hour (hover to see other rain measurements)
** Current wind speed in m/s (hover to see current wind gust speed)